• In Russia
  • List of Countries
  • For 7 days
  • Water Temperature
  • Satellite Maps
  • Weather Map
  • Weather Widgets
  • user-avatar
    Login

    Hourly Weather Taba

    Today, 19 January, Saturday

    Time Temperature Precipitation Wind Pressure Humidity
    00:00 +6°C° 0 mm 2 mps 695 mmHg 83%
    01:00 +6°C° 0 mm 2 mps 695 mmHg 85%
    02:00 +6°C° 0 mm 2 mps 694 mmHg 86%
    03:00 +6°C° 0 mm 2 mps 694 mmHg 86%
    04:00 +5°C° 0 mm 2 mps 694 mmHg 86%
    05:00 +5°C° 0 mm 2 mps 694 mmHg 86%
    06:00 +6°C° 0 mm 2 mps 694 mmHg 82%
    07:00 +6°C° 0 mm 2 mps 694 mmHg 78%
    08:00 +7°C° 0 mm 2 mps 694 mmHg 74%
    09:00 +9°C° 0 mm 2 mps 695 mmHg 63%
    10:00 +12°C° 0 mm 2 mps 695 mmHg 51%
    11:00 +13°C° 0 mm 2 mps 695 mmHg 40%
    12:00 +14°C° 0 mm 2 mps 695 mmHg 35%
    13:00 +15°C° 0 mm 2 mps 695 mmHg 31%
    14:00 +16°C° 0 mm 3 mps 694 mmHg 26%
    15:00 +16°C° 0 mm 2 mps 694 mmHg 26%
    16:00 +15°C° 0 mm 2 mps 694 mmHg 26%
    17:00 +14°C° 0 mm 2 mps 694 mmHg 26%
    18:00 +13°C° 0 mm 2 mps 694 mmHg 29%
    19:00 +12°C° 0 mm 2 mps 694 mmHg 31%
    20:00 +10°C° 0 mm 2 mps 694 mmHg 33%
    21:00 +10°C° 0 mm 2 mps 694 mmHg 36%
    22:00 +9°C° 0 mm 2 mps 694 mmHg 39%
    23:00 +9°C° 0 mm 2 mps 694 mmHg 42%

    Tomorrow, 20 January, Sunday

    Time Temperature Precipitation Wind Pressure Humidity
    00:00 +8°C° 0 mm 2 mps 694 mmHg 43%
    01:00 +9°C° 0 mm 1 mps 694 mmHg 45%
    02:00 +8°C° 0 mm 1 mps 694 mmHg 47%
    03:00 +8°C° 0 mm 1 mps 693 mmHg 48%
    04:00 +8°C° 0 mm 1 mps 693 mmHg 49%
    05:00 +7°C° 0 mm 1 mps 693 mmHg 50%
    06:00 +8°C° 0 mm 1 mps 693 mmHg 47%
    07:00 +9°C° 0 mm 1 mps 694 mmHg 44%
    08:00 +10°C° 0 mm 1 mps 694 mmHg 40%
    09:00 +12°C° 0 mm 1 mps 694 mmHg 34%
    10:00 +14°C° 0 mm 1 mps 695 mmHg 28%
    11:00 +16°C° 0 mm 1 mps 695 mmHg 22%
    12:00 +18°C° 0 mm 1 mps 694 mmHg 20%
    13:00 +19°C° 0 mm 1 mps 694 mmHg 17%
    14:00 +20°C° 0 mm 1 mps 693 mmHg 14%
    15:00 +19°C° 0 mm 1 mps 693 mmHg 16%
    16:00 +18°C° 0 mm 1 mps 693 mmHg 17%
    17:00 +16°C° 0 mm 1 mps 693 mmHg 18%
    18:00 +15°C° 0 mm 1 mps 693 mmHg 20%
    19:00 +14°C° 0 mm 1 mps 693 mmHg 22%
    20:00 +14°C° 0 mm 1 mps 694 mmHg 24%
    21:00 +14°C° 0 mm 1 mps 694 mmHg 24%
    22:00 +14°C° 0 mm 1 mps 694 mmHg 25%
    23:00 +14°C° 0 mm 1 mps 694 mmHg 26%

    Day after tomorrow, 21 January, Monday

    Time Temperature Precipitation Wind Pressure Humidity
    00:00 +13°C° 0 mm 1 mps 694 mmHg 25%
    01:00 +13°C° 0 mm 1 mps 693 mmHg 25%
    02:00 +13°C° 0 mm 1 mps 693 mmHg 24%
    03:00 +13°C° 0 mm 1 mps 693 mmHg 24%
    04:00 +13°C° 0 mm 1 mps 693 mmHg 24%
    05:00 +13°C° 0 mm 1 mps 692 mmHg 23%
    06:00 +14°C° 0 mm 1 mps 693 mmHg 21%
    07:00 +14°C° 0 mm 1 mps 693 mmHg 19%
    08:00 +15°C° 0 mm 1 mps 694 mmHg 18%
    09:00 +16°C° 0 mm 1 mps 694 mmHg 16%
    10:00 +17°C° 0 mm 2 mps 694 mmHg 14%
    11:00 +19°C° 0 mm 2 mps 695 mmHg 12%
    12:00 +19°C° 0 mm 2 mps 694 mmHg 12%
    13:00 +20°C° 0 mm 2 mps 694 mmHg 13%
    14:00 +20°C° 0 mm 2 mps 693 mmHg 14%
    15:00 +19°C° 0 mm 2 mps 693 mmHg 16%
    16:00 +18°C° 0 mm 2 mps 693 mmHg 18%
    17:00 +18°C° 0 mm 2 mps 693 mmHg 20%
    18:00 +16°C° 0 mm 2 mps 694 mmHg 22%
    19:00 +15°C° 0 mm 2 mps 694 mmHg 25%
    20:00 +14°C° 0 mm 2 mps 694 mmHg 27%
    21:00 +13°C° 0 mm 1 mps 694 mmHg 28%
    22:00 +13°C° 0 mm 1 mps 694 mmHg 29%
    23:00 +12°C° 0 mm 1 mps 693 mmHg 30%

    22 January, Tuesday

    Time Temperature Precipitation Wind Pressure Humidity
    00:00 +12°C° 0 mm 1 mps 693 mmHg 31%
    01:00 +11°C° 0 mm 1 mps 693 mmHg 31%
    02:00 +11°C° 0 mm 1 mps 693 mmHg 32%
    03:00 +11°C° 0 mm 1 mps 692 mmHg 33%
    04:00 +10°C° 0 mm 1 mps 692 mmHg 34%
    05:00 +10°C° 0 mm 1 mps 692 mmHg 34%
    06:00 +11°C° 0 mm 1 mps 692 mmHg 33%
    07:00 +12°C° 0 mm 1 mps 693 mmHg 31%
    08:00 +13°C° 0 mm 1 mps 693 mmHg 29%
    09:00 +15°C° 0 mm 1 mps 693 mmHg 26%
    10:00 +18°C° 0 mm 1 mps 694 mmHg 22%
    11:00 +20°C° 0 mm 1 mps 694 mmHg 19%
    12:00 +20°C° 0 mm 1 mps 693 mmHg 17%
    13:00 +21°C° 0 mm 1 mps 693 mmHg 15%
    14:00 +22°C° 0 mm 1 mps 692 mmHg 13%
    15:00 +21°C° 0 mm 1 mps 692 mmHg 15%
    16:00 +20°C° 0 mm 1 mps 692 mmHg 16%
    17:00 +19°C° 0 mm 1 mps 692 mmHg 17%
    18:00 +18°C° 0 mm 1 mps 692 mmHg 20%
    19:00 +15°C° 0 mm 1 mps 692 mmHg 22%
    20:00 +14°C° 0 mm 1 mps 692 mmHg 25%
    21:00 +14°C° 0 mm 1 mps 692 mmHg 26%
    22:00 +13°C° 0 mm 1 mps 692 mmHg 27%
    23:00 +12°C° 0 mm 1 mps 692 mmHg 28%

    23 January, Wednesday

    Time Temperature Precipitation Wind Pressure Humidity
    00:00 +12°C° 0 mm 1 mps 691 mmHg 28%
    01:00 +12°C° 0 mm 1 mps 691 mmHg 28%
    02:00 +11°C° 0 mm 1 mps 691 mmHg 28%
    03:00 +11°C° 0 mm 1 mps 691 mmHg 28%
    04:00 +11°C° 0 mm 1 mps 691 mmHg 28%
    05:00 +10°C° 0 mm 1 mps 690 mmHg 29%
    06:00 +11°C° 0 mm 1 mps 691 mmHg 27%
    07:00 +12°C° 0 mm 1 mps 691 mmHg 26%
    08:00 +13°C° 0 mm 1 mps 692 mmHg 25%
    09:00 +15°C° 0 mm 1 mps 692 mmHg 22%
    10:00 +18°C° 0 mm 1 mps 692 mmHg 19%
    11:00 +19°C° 0 mm 2 mps 692 mmHg 16%
    12:00 +20°C° 0 mm 2 mps 692 mmHg 14%
    13:00 +21°C° 0 mm 3 mps 691 mmHg 13%
    14:00 +22°C° 0 mm 3 mps 691 mmHg 11%
    15:00 +20°C° 0 mm 3 mps 690 mmHg 13%
    16:00 +19°C° 0 mm 3 mps 690 mmHg 14%
    17:00 +18°C° 0 mm 2 mps 690 mmHg 16%
    18:00 +18°C° 0 mm 2 mps 690 mmHg 18%
    19:00 +17°C° 0 mm 2 mps 690 mmHg 21%
    20:00 +16°C° 0 mm 2 mps 690 mmHg 24%
    21:00 +16°C° 0 mm 2 mps 690 mmHg 26%
    22:00 +15°C° 0 mm 2 mps 690 mmHg 29%
    23:00 +15°C° 0 mm 2 mps 690 mmHg 31%

    24 January, Thursday

    Time Temperature Precipitation Wind Pressure Humidity
    00:00 +15°C° 0 mm 2 mps 690 mmHg 31%
    01:00 +14°C° 0 mm 2 mps 690 mmHg 32%
    02:00 +14°C° 0 mm 2 mps 689 mmHg 32%
    03:00 +14°C° 0 mm 2 mps 689 mmHg 34%
    04:00 +14°C° 0 mm 2 mps 689 mmHg 35%
    05:00 +13°C° 0 mm 2 mps 689 mmHg 36%
    06:00 +13°C° 0 mm 3 mps 689 mmHg 36%
    07:00 +13°C° 0 mm 3 mps 690 mmHg 36%
    08:00 +14°C° 0 mm 3 mps 690 mmHg 35%
    09:00 +17°C° 0 mm 3 mps 691 mmHg 32%
    10:00 +19°C° 0 mm 4 mps 691 mmHg 29%
    11:00 +21°C° 0 mm 5 mps 691 mmHg 26%
    12:00 +22°C° 0 mm 5 mps 691 mmHg 24%
    13:00 +23°C° 0 mm 5 mps 691 mmHg 21%
    14:00 +24°C° 0 mm 6 mps 691 mmHg 19%
    15:00 +23°C° 0 mm 5 mps 691 mmHg 25%
    16:00 +21°C° 0 mm 4 mps 691 mmHg 31%
    17:00 +20°C° 0 mm 3 mps 691 mmHg 37%
    18:00 +19°C° 0 mm 3 mps 691 mmHg 47%
    19:00 +18°C° 0 mm 2 mps 691 mmHg 57%
    20:00 +16°C° 0 mm 2 mps 692 mmHg 66%
    21:00 +16°C° 0 mm 2 mps 692 mmHg 71%
    22:00 +15°C° 0 mm 1 mps 692 mmHg 76%
    23:00 +15°C° 0 mm 1 mps 692 mmHg 81%
    Show more